Theta_e
306 306 306 306 307 307 307 308 308 308 308 307 307 308 308 313 316 316 324 322 325 331 330 329 330 334 333 333 336 337 334 334 335 340 340 340 341 341 341 342 342 342 342 341 340 340 340 337 338 340 339 336 336 335
306 306 306 307 307 308 308 308 308 308 308 308 308 308 308 310 319 319 325 322 322 326 327 326 323 325 328 330 332 333 334 337 337 338 337 338 339 339 340 340 337 340 339 343 343 339 342 337 336 335 335 336 335 334
306 306 306 307 307 308 308 309 309 308 308 308 308 308 308 309 317 318 322 321 324 326 326 326 326 324 323 325 325 329 330 331 334 332 333 333 336 335 335 334 334 332 340 339 338 337 339 337 334 336 336 335 335 335
305 306 306 306 307 307 308 308 309 309 308 308 308 308 309 309 312 319 323 322 323 326 327 328 323 325 325 324 324 325 325 327 329 331 331 330 331 330 332 330 334 334 334 335 335 334 337 333 336 338 337 337 338 338
305 305 305 306 306 307 308 308 308 309 309 308 308 309 314 312 311 320 323 323 321 324 329 327 324 326 327 327 327 326 324 325 329 330 330 329 329 330 331 329 329 330 331 333 333 337 339 336 336 337 339 340 339 339
304 305 305 305 306 307 307 308 308 308 309 308 308 312 315 313 312 323 330 326 321 320 327 325 326 329 328 327 327 327 327 327 330 330 330 331 330 330 329 329 335 334 333 331 334 334 336 335 336 337 339 339 338 337
305 305 305 305 306 306 307 307 307 308 309 308 308 313 313 313 318 325 328 322 317 320 329 326 325 329 328 328 328 327 326 327 329 331 331 331 332 331 330 330 336 337 337 337 336 338 337 338 338 337 337 336 336 335
305 305 305 306 306 306 306 307 307 308 309 308 308 314 316 316 317 321 322 318 317 323 325 329 330 331 328 330 331 330 330 331 331 330 331 333 331 332 333 334 338 338 337 337 337 337 336 335 336 336 334 334 335 335
305 305 306 306 306 306 306 306 307 308 309 309 310 314 318 321 327 325 320 315 323 327 331 327 330 333 330 332 332 333 331 334 332 333 332 332 333 333 341 340 339 338 337 337 335 334 334 334 335 334 334 333 334 334
304 304 305 306 306 306 306 306 306 308 311 313 316 323 330 325 319 317 323 332 333 328 325 326 332 334 330 332 332 332 332 332 333 334 333 334 333 340 337 337 337 335 334 333 334 334 332 332 332 332 332 332 332 333
303 304 304 305 305 305 306 306 306 309 313 315 317 322 317 318 321 324 329 332 333 331 327 325 327 332 330 332 332 330 331 331 331 332 332 333 337 342 336 335 333 333 332 332 331 331 331 330 330 330 329 330 330 331
303 303 304 304 304 305 306 306 306 309 309 308 309 311 317 324 326 328 330 330 333 335 333 331 329 331 331 331 330 331 328 330 330 334 333 333 342 336 334 333 332 332 331 331 330 330 329 328 327 328 329 329 329 329
303 303 303 304 304 304 306 306 306 306 307 314 315 324 325 326 332 326 329 330 333 333 333 332 330 330 330 330 331 332 332 331 332 333 332 341 337 334 333 332 331 329 328 328 328 327 326 326 326 326 327 327 328 329
302 303 303 303 304 305 306 306 305 306 311 320 322 325 325 325 325 325 329 334 334 332 332 331 332 331 330 330 331 330 330 330 329 330 335 337 335 332 331 330 329 330 329 329 329 329 330 329 329 327 326 327 328 331
302 303 303 304 305 306 305 306 306 309 316 320 320 325 324 325 328 328 328 329 330 330 330 330 330 329 330 329 326 328 329 329 328 334 335 335 333 331 331 331 330 330 331 332 331 331 330 329 330 329 328 328 329 331
302 303 306 305 305 305 305 307 310 315 317 319 320 321 322 324 326 327 328 330 329 329 329 329 330 328 329 327 328 328 327 328 334 332 330 329 331 331 332 332 333 331 330 331 330 330 331 331 330 330 329 331 331 331
303 305 306 305 305 305 308 310 315 317 319 319 320 319 321 325 328 328 328 329 327 329 329 328 329 328 327 327 327 329 330 332 331 328 326 329 332 332 331 331 331 330 329 329 329 330 331 330 330 331 332 331 331 330
304 306 306 305 305 308 312 312 316 317 319 319 320 320 319 320 324 325 326 326 328 328 328 328 328 329 327 326 326 329 329 326 325 326 329 331 331 330 331 332 331 330 330 330 330 330 329 329 330 331 330 331 329 325
306 306 306 304 305 306 312 314 314 318 319 318 319 319 319 319 320 323 324 324 326 327 327 326 326 327 327 326 325 325 325 326 328 328 328 330 331 331 330 330 330 330 330 329 329 329 325 321 322 323 322 319 318 316
304 304 304 304 304 307 312 314 313 317 319 319 318 318 319 319 319 320 322 325 326 326 326 326 326 325 324 325 325 325 326 327 328 329 329 330 330 330 329 329 329 329 328 328 327 322 322 319 316 315 315 315 315 316
304 306 306 305 307 307 310 313 315 315 316 318 319 319 320 320 320 320 322 323 325 326 326 325 325 324 326 326 326 327 328 329 329 329 330 331 328 329 329 327 326 327 327 326 325 324 321 321 316 315 316 316 314 315
305 305 306 306 308 310 311 311 313 314 317 317 318 319 319 321 321 321 320 321 324 324 324 324 324 327 327 328 328 329 329 329 329 328 326 326 329 329 327 324 323 324 324 324 322 319 317 316 317 318 318 317 316 314
304 305 306 309 312 312 314 312 315 316 316 316 317 319 320 321 321 321 322 321 322 323 322 323 325 327 326 327 327 328 329 329 329 328 330 328 327 327 324 321 321 320 319 318 317 317 317 316 316 316 315 315 314 313
304 306 310 311 313 315 313 315 315 316 315 316 317 318 319 321 323 323 323 323 321 322 323 329 326 326 328 328 328 329 330 329 330 327 327 327 323 323 321 322 320 319 318 317 316 316 316 315 314 314 312 312 312 311
307 308 310 312 313 314 315 315 315 315 316 315 316 318 319 324 326 326 326 329 324 323 324 326 326 327 328 329 329 326 327 325 326 329 324 322 322 323 322 321 319 318 318 317 317 316 316 315 315 314 313 311 310 311
311 310 313 312 313 315 315 316 315 316 315 316 317 318 322 325 324 327 329 330 331 330 329 328 328 329 328 327 329 328 325 325 326 327 326 322 320 320 322 321 321 318 317 317 317 316 316 315 315 314 313 312 310 310
312 312 313 312 314 314 315 317 317 317 318 319 321 322 324 325 325 328 327 326 328 326 325 326 327 328 329 326 327 326 324 322 323 324 325 323 319 321 320 320 321 317 315 315 316 315 314 314 314 313 312 311 311 310
310 312 314 314 314 314 315 315 315 318 319 320 319 322 323 323 324 325 324 324 323 325 326 325 325 325 325 323 320 320 319 319 321 326 325 320 319 317 317 320 316 314 315 312 312 313 313 313 312 312 311 311 310 309
311 312 312 314 314 313 314 315 316 316 315 315 320 322 320 318 318 320 322 322 323 323 324 325 324 323 319 318 317 316 318 319 323 325 323 320 317 315 317 318 318 316 315 314 312 311 310 310 309 309 309 309 309 309
312 312 313 313 314 314 314 315 316 314 315 316 320 320 319 318 317 318 321 323 323 324 322 322 323 322 318 316 316 315 315 316 316 317 320 317 314 314 315 316 315 314 314 313 313 311 309 309 310 309 309 309 308 307
311 312 312 313 314 314 313 314 314 315 316 316 318 318 319 317 316 318 319 321 321 323 319 317 318 317 316 316 316 316 316 315 314 314 315 314 313 312 312 312 313 313 312 310 310 310 309 310 310 309 308 308 307 307
311 312 313 313 313 312 313 314 315 314 315 316 317 318 318 319 320 320 316 320 320 319 315 316 315 313 311 311 310 310 310 310 309 309 309 311 311 311 311 310 309 309 308 308 308 308 308 308 307 308 307 307 306 306
311 311 312 313 313 314 314 314 313 314 315 315 315 317 318 318 320 320 322 322 322 321 318 314 311 310 310 311 310 309 308 306 304 304 303 303 303 305 308 308 308 308 308 308 308 308 308 307 307 307 307 306 306 306
Wind_Speed
15 17 19 21 23 25 27 29 30 32 34 33 28 20 16 14 12 5 3 6 6 6 8 5 7 8 5 6 8 6 4 7 7 9 10 12 13 14 15 13 14 14 15 13 13 17 16 12 5 5 7 9 12 14
14 16 19 21 23 25 27 29 30 31 33 34 30 21 14 11 10 6 3 6 6 5 6 6 8 8 6 6 7 3 6 5 6 5 6 6 12 11 16 13 13 9 9 6 9 11 4 5 8 8 7 10 11 12
14 16 18 20 23 25 26 28 30 32 33 34 31 21 14 9 6 5 6 9 5 5 8 10 7 7 7 10 8 5 5 3 3 4 7 8 10 9 12 11 16 10 5 7 11 8 1 5 8 9 10 10 10 10
14 16 18 19 22 24 26 28 30 31 32 35 31 20 14 8 3 3 4 9 6 5 5 5 1 4 4 7 8 11 13 5 8 5 8 7 10 4 8 9 6 7 2 6 9 12 11 5 9 9 9 8 9 9
15 16 17 19 21 23 26 28 31 32 33 34 29 19 12 7 3 2 3 3 5 6 5 3 3 4 5 6 9 10 13 10 5 6 5 7 6 5 7 8 9 6 3 5 7 6 6 10 10 9 8 10 11 11
15 16 17 19 21 23 25 28 31 32 33 34 25 16 11 4 1 3 5 3 5 6 4 5 4 3 2 3 5 9 11 5 5 5 5 3 3 2 6 6 4 4 0 3 5 8 9 10 7 8 8 11 11 13
16 17 18 19 20 22 25 28 31 33 33 32 20 10 6 1 1 6 5 3 10 3 4 4 4 6 5 8 5 6 6 5 5 5 4 7 3 5 7 9 8 5 3 4 5 6 9 5 7 9 10 11 12 15
15 16 18 19 20 22 25 28 32 33 33 27 15 5 2 1 2 5 2 9 6 6 4 4 2 4 9 6 5 3 6 5 5 6 2 5 5 4 5 2 6 3 5 2 3 8 11 12 10 11 14 13 15 16
16 17 17 18 19 22 25 28 31 33 30 17 8 3 4 4 4 5 8 9 4 5 5 3 6 4 6 6 0 4 4 5 4 5 8 3 6 6 6 3 3 4 5 6 7 9 9 10 11 11 13 14 15 15
15 17 18 19 19 21 24 26 30 31 19 9 5 6 4 4 8 8 3 4 6 6 5 5 2 2 4 6 6 3 4 5 4 3 3 4 9 9 5 8 4 4 6 7 7 7 9 10 11 13 14 14 15 15
16 16 18 17 18 20 22 23 26 26 14 8 5 3 9 9 4 4 3 4 5 4 6 6 4 2 3 4 3 1 1 1 3 4 3 4 3 9 5 4 0 3 5 7 7 9 12 12 13 14 15 15 19 19
16 16 16 17 18 19 20 21 20 16 12 11 13 11 7 4 4 4 4 4 5 3 3 6 7 2 5 2 3 3 4 3 4 3 3 3 7 6 3 3 4 6 7 10 12 12 15 16 17 17 17 17 21 23
15 16 16 16 18 19 19 16 16 18 16 4 5 4 3 2 2 6 7 5 4 3 4 5 6 5 4 5 2 2 4 5 2 4 4 5 5 6 3 4 7 10 12 14 15 20 21 20 21 22 20 21 23 23
15 16 16 16 17 18 14 14 16 15 5 4 3 3 5 6 6 4 4 4 5 1 5 5 5 4 2 5 1 3 2 2 4 5 1 6 5 2 4 7 10 12 14 16 16 20 21 23 22 23 22 21 20 19
15 16 16 15 17 12 13 15 13 5 5 4 4 4 7 3 2 1 3 1 4 1 3 3 1 3 4 2 3 2 3 4 3 4 5 7 3 2 7 10 11 12 12 13 18 18 19 19 20 21 19 21 21 20
13 14 11 10 9 11 14 14 7 6 4 4 5 5 5 5 5 5 6 4 4 5 1 1 2 2 4 3 4 6 3 4 4 3 5 3 4 6 8 10 11 13 13 16 19 19 20 18 19 20 18 19 16 14
8 5 4 9 13 12 10 4 5 5 4 4 6 6 6 6 5 4 3 4 1 5 6 3 3 6 1 4 4 2 3 5 5 4 4 3 5 7 8 10 12 12 14 15 16 19 18 21 21 18 11 16 9 10
7 4 6 10 12 10 5 6 4 4 6 7 6 5 4 5 3 3 4 3 4 6 3 2 3 6 4 4 4 4 2 1 1 3 4 6 7 8 10 11 13 13 15 14 16 18 18 18 18 12 15 10 9 13
6 6 3 8 8 4 4 4 4 4 7 4 5 4 4 5 4 4 1 3 5 5 2 3 4 5 6 2 3 2 2 3 4 5 6 4 3 7 9 10 9 10 10 11 13 11 16 20 18 16 18 18 13 14
12 12 10 8 5 2 3 3 4 4 5 1 3 5 5 5 3 5 7 6 6 6 6 4 5 4 2 2 3 3 5 5 4 5 1 3 4 5 5 7 8 9 11 9 13 17 15 15 18 16 15 15 11 7
5 5 4 5 5 5 4 3 4 2 3 4 4 3 5 6 7 7 7 7 7 8 8 7 6 3 7 6 4 5 5 4 3 4 3 4 5 5 6 6 7 4 9 9 7 9 11 10 8 7 7 4 4 8
3 4 3 5 3 4 4 6 3 3 4 4 5 5 5 6 7 7 6 8 9 7 8 5 2 6 5 4 2 1 2 3 2 3 3 3 3 1 3 5 7 10 7 6 5 10 10 9 5 5 5 5 2 8
3 3 2 3 4 3 4 5 4 4 3 2 3 3 5 4 4 5 5 7 7 7 9 6 5 1 3 0 4 5 4 3 1 1 4 3 5 1 2 9 12 7 8 8 7 6 4 2 6 9 11 9 11 10
4 2 2 2 4 3 4 4 3 3 3 5 4 5 4 3 2 4 7 7 8 9 8 7 6 6 6 4 5 3 4 4 3 3 2 3 3 4 9 4 2 3 5 9 5 3 3 4 6 10 14 15 12 12
1 2 3 4 4 3 4 3 4 4 3 4 5 6 3 4 5 4 3 3 4 5 6 8 9 6 5 2 2 3 3 1 1 0 3 6 4 2 7 10 9 8 4 7 3 7 16 13 15 9 7 10 14 15
4 5 3 4 2 4 3 2 4 5 3 3 4 3 1 3 4 2 1 2 5 5 5 6 4 4 2 2 3 4 4 5 3 3 3 8 7 3 4 5 2 5 3 12 10 8 5 4 5 15 8 3 6 11
3 4 4 4 3 3 3 4 5 3 0 2 3 4 3 4 2 2 2 1 2 2 4 6 5 3 3 3 3 1 2 5 6 4 9 10 10 5 5 7 11 6 8 6 6 4 7 5 2 9 8 9 9 10
3 4 1 2 2 2 2 0 2 3 3 3 2 3 4 6 4 4 2 3 3 5 6 6 6 7 6 4 3 1 3 5 2 10 12 9 4 4 8 8 3 4 5 6 9 12 14 11 6 7 8 8 9 8
4 4 4 4 2 1 3 0 1 2 1 1 2 1 1 2 3 3 5 8 2 6 5 3 3 6 7 8 8 8 7 8 8 6 8 4 1 3 15 10 4 2 1 3 5 7 7 7 8 7 8 8 9 10
3 3 1 2 3 3 2 2 1 2 5 7 1 2 2 1 6 9 9 6 7 6 2 4 5 4 7 8 11 11 12 12 10 7 6 5 4 4 4 1 2 4 6 6 2 4 1 5 7 6 9 11 10 14
2 5 3 4 3 2 5 5 5 9 8 3 1 6 2 1 3 3 5 4 5 4 5 6 7 9 12 11 9 10 10 12 12 12 10 10 8 5 4 2 2 1 5 5 5 7 9 10 10 11 10 11 11 12
3 4 2 2 2 4 5 6 7 6 5 4 4 4 5 2 2 0 3 3 1 3 11 13 14 14 16 14 12 16 16 15 14 13 12 10 8 6 4 5 6 6 6 7 8 9 10 11 11 10 10 11 11 11
5 4 3 4 4 4 5 4 4 3 4 2 2 4 8 2 1 4 5 6 5 5 13 14 15 16 15 12 13 14 15 15 16 16 16 14 11 13 12 11 8 7 7 8 9 9 9 9 10 10 10 11 12 11
Wind_Direction
354 355 357 358 360 0 1 2 4 5 5 3 359 356 357 4 7 359 334 350 326 291 297 359 324 318 308 255 274 66 232 218 269 257 268 277 278 283 298 290 298 285 280 282 288 287 296 16 290 329 11 346 342 338
347 349 352 354 355 357 358 359 360 359 359 359 356 352 350 356 9 9 275 345 316 260 340 319 290 282 283 332 323 309 317 306 349 287 249 269 282 284 291 277 282 291 291 320 311 325 123 5 345 12 4 329 327 320
338 343 347 349 350 352 354 355 356 356 355 355 352 348 344 341 353 359 329 346 285 268 264 233 248 193 243 245 266 280 254 337 269 330 300 292 291 306 285 283 295 291 40 274 287 292 49 339 353 24 349 329 314 325
330 335 340 343 346 348 349 350 351 353 353 353 349 343 337 330 323 20 340 350 297 303 275 148 141 221 252 237 245 254 273 274 269 272 265 265 277 291 283 308 314 305 339 301 300 279 339 258 31 3 335 322 330 332
323 328 333 338 341 343 345 346 347 349 349 349 347 341 337 323 284 250 283 351 11 316 322 357 134 177 210 216 230 232 240 245 232 228 236 253 266 325 272 269 277 318 311 286 322 52 340 328 345 343 333 332 331 335
317 322 328 332 336 339 341 342 343 344 345 346 344 340 339 322 265 250 205 168 353 339 274 250 94 175 198 197 209 209 217 224 263 256 265 265 275 281 273 263 92 120 284 330 308 347 314 296 305 295 325 316 323 320
311 317 322 327 332 335 337 338 339 340 342 343 339 337 354 16 285 299 6 21 334 307 250 255 200 142 208 180 161 181 192 227 253 251 243 269 218 191 273 272 124 93 349 335 328 305 304 340 315 328 289 302 299 308
310 314 318 322 327 332 335 336 336 337 339 339 333 307 331 348 270 231 212 319 333 263 260 264 161 181 187 205 186 206 209 205 211 256 217 260 217 224 263 29 54 54 323 280 281 321 304 314 323 326 328 320 316 315
303 310 315 318 324 329 331 333 334 336 339 336 329 283 273 241 245 64 298 297 250 278 293 234 249 175 164 237 105 171 265 237 177 235 244 216 245 232 62 75 55 31 351 340 319 306 314 328 315 321 320 319 315 318
295 299 306 313 320 326 328 331 333 339 343 352 314 222 211 51 308 309 219 196 199 190 225 255 0 201 233 170 195 238 171 244 240 183 98 233 246 73 79 56 52 344 325 328 321 324 323 323 327 318 316 318 320 313
289 295 302 307 315 320 326 331 335 345 360 349 332 330 333 315 267 223 247 231 172 222 192 237 224 231 184 246 186 227 331 56 244 145 243 214 178 96 88 84 21 329 329 308 303 305 312 323 321 318 318 314 308 314
285 288 297 305 310 316 321 328 334 351 343 309 298 300 285 241 230 235 212 192 234 219 149 204 186 294 107 290 266 160 238 184 252 93 241 230 92 109 101 20 326 289 308 314 307 308 306 306 310 305 302 310 311 305
283 286 290 299 304 308 313 318 325 325 326 247 239 237 225 210 344 223 193 205 201 172 148 183 167 182 149 235 233 209 215 234 53 226 227 60 94 72 16 316 322 316 304 306 307 306 303 297 297 302 302 301 304 310
278 285 288 291 299 303 303 311 322 329 281 251 241 285 225 194 234 211 265 54 64 110 171 203 124 215 97 192 273 225 216 313 250 244 162 103 110 56 322 316 309 311 311 310 309 310 314 312 303 299 297 302 306 311
274 286 290 291 296 293 302 309 314 294 270 261 250 241 224 275 287 5 343 222 170 228 151 163 136 252 159 189 220 292 215 244 226 30 107 115 84 321 312 310 307 314 326 325 324 320 315 311 307 299 296 300 319 323
277 295 278 265 273 298 313 312 275 237 249 246 240 256 245 259 214 192 202 156 164 192 188 285 183 228 193 228 197 214 248 244 77 53 39 56 46 322 308 327 322 316 319 319 313 315 315 314 301 301 312 322 324 334
257 246 267 306 305 309 313 268 220 222 252 241 231 232 280 310 326 83 305 89 184 234 210 184 204 186 73 225 225 176 244 42 42 27 351 4 323 329 316 298 302 321 312 312 307 301 311 307 309 310 309 324 337 3
235 264 274 309 329 319 222 221 254 248 238 241 250 228 211 277 287 207 208 198 234 223 261 226 45 211 220 216 224 150 159 325 351 291 341 3 320 306 310 306 311 316 315 320 319 321 328 337 329 328 326 328 33 29
233 234 271 311 333 314 287 216 242 265 233 271 265 265 256 266 249 311 304 221 253 322 317 199 237 245 245 244 299 313 239 275 343 2 316 28 351 319 324 325 336 346 344 343 359 15 30 25 20 35 53 59 56 32
247 256 263 265 279 257 255 209 240 260 266 42 273 262 247 256 238 218 221 218 204 205 221 225 251 273 250 54 67 321 320 324 303 290 18 90 341 352 10 355 358 340 5 22 48 37 46 43 32 34 50 59 57 27
236 238 250 194 202 225 271 277 238 235 308 289 289 254 253 213 222 224 230 220 216 226 230 228 239 94 51 41 327 301 295 324 303 282 317 309 339 4 329 325 44 49 50 38 43 59 49 47 48 37 35 18 357 316
221 196 199 208 239 226 254 250 267 290 263 243 240 224 258 230 219 215 215 221 224 223 234 250 228 130 154 208 263 257 226 239 245 289 259 215 256 353 336 21 27 59 55 50 44 55 60 50 27 34 16 351 222 48
188 203 239 247 209 210 263 210 237 221 249 269 248 247 221 216 223 153 216 223 226 215 233 216 152 133 277 170 235 212 213 219 16 252 233 226 245 155 262 46 33 34 88 63 47 47 43 309 3 330 12 21 23 10
213 240 256 250 230 230 219 217 233 234 226 234 243 253 234 200 175 214 237 225 200 207 186 131 181 204 200 200 230 168 192 213 207 173 112 144 116 3 332 338 115 124 62 53 56 315 211 76 337 36 22 3 20 14
172 236 223 237 224 245 224 230 215 214 240 222 230 241 240 154 198 232 248 188 183 165 157 174 209 210 218 107 167 139 216 156 76 79 198 159 147 20 345 2 31 351 134 131 265 358 57 33 353 15 54 34 5 351
227 206 228 214 232 244 231 219 207 232 253 234 237 246 189 241 233 230 120 149 162 170 179 207 185 183 186 135 172 177 201 214 216 259 213 175 152 126 318 316 253 257 35 61 49 35 11 30 9 315 358 46 53 349
249 204 224 209 235 236 290 338 308 241 229 315 324 300 246 225 178 72 359 55 98 174 180 91 98 163 170 176 115 131 287 293 273 272 157 176 175 188 242 269 287 32 35 41 60 330 355 86 350 294 346 346 7 8
267 286 233 215 284 292 256 316 278 308 33 15 316 303 6 351 23 352 322 41 8 10 61 86 108 132 141 123 98 73 275 259 261 90 107 103 124 244 275 255 123 77 36 22 1 2 353 350 347 357 358 351 358 355
247 217 236 251 145 2 271 169 297 30 304 274 257 200 142 323 332 301 309 323 35 81 76 92 119 121 113 83 60 40 9 15 79 119 128 107 176 313 10 29 304 175 317 175 107 60 48 32 23 7 349 356 355 12
243 188 224 266 238 190 244 301 153 250 246 270 108 113 112 286 315 2 358 36 53 49 53 94 118 140 106 114 87 64 53 56 58 32 99 120 136 152 286 230 37 27 336 342 21 152 14 267 235 259 9 1 11 350
283 182 217 221 239 199 175 163 207 251 263 231 142 104 90 78 317 320 4 21 16 38 76 75 84 85 60 59 91 85 85 69 68 63 74 101 104 99 98 178 253 345 7 7 7 31 1 346 17 10 15 8 14 12
235 225 218 268 262 211 199 200 207 213 238 246 149 125 126 66 352 18 322 291 84 95 92 72 66 85 89 76 75 70 68 66 58 49 39 40 42 25 47 40 47 31 30 42 51 39 24 18 27 18 17 33 22 17
218 243 234 260 245 221 198 203 200 221 215 216 230 165 130 125 147 213 178 187 188 137 113 112 104 94 89 76 84 88 87 84 77 65 56 51 41 32 43 38 46 50 46 40 40 44 42 33 30 23 22 19 14 9